Flag for Germany Weather past 2 weeks in Gorleben, Lower Saxony, Germany

Now
61 °F

Partly sunny.


Feels Like: 61 °F
Forecast: 44 / 66 °F
Wind: 5 mph from Northwest

Location: Marnitz

Current Time: Jun 3, 2015 at 8:03:25 PM

Latest Report: Jun 3, 2015 at 7:00 PM


Visibility: 31 mi

Pressure: 30.18 "Hg

Humidity: 57%

Dew point: 46 °F

Location of GorlebenLocation

Historic Weather in Gorleben — Graph

°F

Gorleben temperature yesterday

Maximum temperature yesterday: 71 °F (at 7:00 PM)
Minimum temperature yesterday: 49 °F (at 4:00 AM)
Average temperature yesterday: 61 °F

Past Weeks' High & Low Weather Summary

 TemperatureHumidityPressure
High71 °F (Jun 2, 7:00 PM)99% (May 21, 2:00 AM)30.30 "Hg (May 21, 2:00 AM)
Low39 °F (May 20, 3:00 AM)38% (May 19, 7:00 PM)29.66 "Hg (May 30, 2:00 AM)
Average54 °F70%29.98 "Hg
* Reported May 19 7:00 PM — Jun 3 7:00 PM, Gorleben, Weather by CustomWeather, © 2015

Note: Actual official high and low records may vary slightly from our data, if they occured in-between our weather recording intervals... More about our weather records

Advertising

Gorleben weather history for previous 24 hours

 ConditionsComfort  
Time TempWeatherWind HumidityBarometerVisibility
7:00 PM
Wed, Jun 3
61 °FPartly sunny.5 mph57%30.18 "Hg31 mi
6:00 PM62 °FPartly sunny.6 mph51%30.16 "Hg34 mi
5:00 PM63 °FOvercast.6 mph56%30.15 "Hg31 mi
4:00 PM63 °FOvercast.8 mph48%30.11 "Hg34 mi
3:00 PM64 °FOvercast.6 mph50%30.09 "Hg31 mi
2:00 PM67 °FOvercast.5 mph45%30.05 "Hg28 mi
1:00 PM65 °FOvercast.7 mph51%30.03 "Hg34 mi
12:00 PM65 °FOvercast.6 mph54%30.01 "Hg31 mi
11:00 AM63 °FOvercast.5 mph56%29.98 "Hg34 mi
10:00 AM63 °FOvercast.5 mph62%29.96 "Hg43 mi
9:00 AM66 °FOvercast.6 mph56%29.92 "Hg37 mi
8:00 AM65 °FPartly sunny.6 mph57%29.91 "Hg43 mi
7:00 AM63 °FOvercast.7 mph64%29.90 "Hg43 mi
6:00 AM64 °FPartly sunny.5 mph68%29.87 "Hg43 mi
5:00 AM64 °FSunny.5 mph66%29.85 "Hg43 mi
4:00 AM66 °FPassing clouds.6 mph63%29.85 "Hg43 mi
3:00 AM66 °FOvercast.6 mph63%29.85 "Hg43 mi
2:00 AM67 °FOvercast.7 mph61%29.85 "Hg40 mi
1:00 AM67 °FOvercast.7 mph65%29.85 "Hg37 mi
12:00 AM67 °FOvercast.6 mph65%29.85 "Hg37 mi
11:00 PM
Tue, Jun 2
66 °FOvercast.5 mph66%29.85 "Hg37 mi
10:00 PM68 °FOvercast.7 mph59%29.84 "Hg40 mi
9:00 PM69 °FOvercast.5 mph56%29.82 "Hg43 mi
8:00 PM69 °FOvercast.7 mph55%29.82 "Hg43 mi
Weather by CustomWeather, © 2015

See weather overviewHow to use our weather pages